Location: Unspecified
(35.6961°N, 0.0000°E)
Time: 10:31:28
(UTC+00:00)

UNISAT 6 - Pass Details

Date: 23 June 2019
Orbit: 606 x 690 km, 97.7° (Epoch: 16 October)

Event Time Altitude Azimuth Distance (km) Brightness Sun altitude
Rises 20:34:35 0° 18° (NNE) 2,891 ? -13.2°
Reaches altitude 10° 20:36:48 10° 23° (NNE) 1,991 ? -13.5°
Maximum altitude 20:41:02 51° 100° (E) 789 ? -14.1°
Enters shadow 20:44:18 17° 172° (S) 1,629 ? -14.6°
